TimeCST,TemperatureF,Dew PointF,Humidity,Sea Level PressureIn,VisibilityMPH,Wind Direction,Wind SpeedMPH,Gust SpeedMPH,PrecipitationIn,Events,Conditions,WindDirDegrees,DateUTC
12:55 AM,31.5,27.9,87,30.39,10.0,SSW,4.6,-,N/A,,Clear,210,2013-02-16 06:55:00
1:55 AM,33.4,26.6,76,30.39,10.0,West,4.6,-,N/A,,Partly Cloudy,260,2013-02-16 07:55:00
2:55 AM,30.0,27.7,91,30.39,10.0,NNE,9.2,-,N/A,,Clear,20,2013-02-16 08:55:00
3:55 AM,27.7,27.5,99,30.39,10.0,North,6.9,-,N/A,,Clear,360,2013-02-16 09:55:00
4:55 AM,27.3,27.1,99,30.40,10.0,NNW,6.9,-,N/A,,Clear,340,2013-02-16 10:55:00
5:32 AM,26.6,26.6,100,30.41,10.0,NNW,6.9,-,N/A,,Partly Cloudy,330,2013-02-16 11:32:00
5:41 AM,28.4,28.4,100,30.41,6.0,NNW,8.1,-,N/A,,Mostly Cloudy,330,2013-02-16 11:41:00
5:47 AM,28.4,28.4,100,30.41,3.0,North,6.9,-,N/A,,Mostly Cloudy,350,2013-02-16 11:47:00
5:48 AM,28.4,28.4,100,30.41,2.5,North,6.9,-,N/A,,Mostly Cloudy,350,2013-02-16 11:48:00
5:55 AM,29.3,28.9,99,30.41,2.5,North,8.1,-,N/A,,Mostly Cloudy,350,2013-02-16 11:55:00
5:59 AM,30.2,30.2,100,30.41,1.5,North,4.6,-,N/A,,Overcast,350,2013-02-16 11:59:00
6:18 AM,30.2,30.2,100,30.41,1.5,NNW,5.8,-,N/A,,Overcast,330,2013-02-16 12:18:00
6:21 AM,30.2,30.2,100,30.41,2.0,NNW,6.9,-,N/A,,Overcast,330,2013-02-16 12:21:00
6:32 AM,30.2,30.2,100,30.41,2.0,North,5.8,-,N/A,,Overcast,350,2013-02-16 12:32:00
6:37 AM,30.2,30.2,100,30.41,3.0,NNW,5.8,-,N/A,,Overcast,330,2013-02-16 12:37:00
6:42 AM,30.2,30.2,100,30.41,4.0,NNW,4.6,-,N/A,,Overcast,330,2013-02-16 12:42:00
6:45 AM,30.2,30.2,100,30.41,4.0,NNW,4.6,-,N/A,,Overcast,330,2013-02-16 12:45:00
6:55 AM,31.1,31.1,100,30.40,6.0,NW,6.9,-,N/A,,Overcast,320,2013-02-16 12:55:00
7:21 AM,30.2,30.2,100,30.42,5.0,NW,6.9,-,N/A,,Overcast,320,2013-02-16 13:21:00
7:23 AM,30.2,30.2,100,30.42,2.5,NNW,6.9,-,N/A,,Overcast,330,2013-02-16 13:23:00
7:30 AM,30.2,30.2,100,30.42,0.8,NNW,4.6,-,N/A,,Overcast,340,2013-02-16 13:30:00
7:35 AM,30.2,30.2,100,30.42,1.0,NW,5.8,-,N/A,,Overcast,320,2013-02-16 13:35:00
7:41 AM,30.2,30.2,100,30.42,2.0,North,5.8,-,N/A,,Overcast,350,2013-02-16 13:41:00
7:45 AM,30.2,30.2,100,30.42,3.0,NNW,4.6,-,N/A,,Overcast,340,2013-02-16 13:45:00
7:55 AM,30.6,30.6,100,30.42,3.0,NNW,5.8,-,N/A,,Overcast,330,2013-02-16 13:55:00
8:05 AM,30.2,30.2,100,30.43,2.5,NNW,5.8,-,N/A,,Overcast,340,2013-02-16 14:05:00
8:15 AM,30.2,30.2,100,30.43,3.0,NNW,5.8,-,N/A,,Overcast,340,2013-02-16 14:15:00
8:55 AM,30.9,30.9,100,30.43,3.0,NNE,3.5,-,N/A,,Overcast,20,2013-02-16 14:55:00
9:55 AM,31.1,31.1,100,30.43,6.0,Calm,Calm,-,N/A,,Overcast,0,2013-02-16 15:55:00
10:15 AM,32.0,32.0,100,30.41,8.0,WNW,3.5,-,N/A,,Overcast,300,2013-02-16 16:15:00
10:33 AM,33.8,33.8,100,30.40,10.0,South,4.6,-,N/A,,Overcast,190,2013-02-16 16:33:00
10:55 AM,34.5,34.3,99,30.40,10.0,Variable,5.8,-,N/A,,Overcast,0,2013-02-16 16:55:00
11:16 AM,35.6,33.8,93,30.38,10.0,Variable,3.5,-,N/A,,Overcast,0,2013-02-16 17:16:00
11:30 AM,35.6,33.8,93,30.38,10.0,South,5.8,-,N/A,,Overcast,170,2013-02-16 17:30:00
11:36 AM,35.6,35.6,100,30.37,10.0,South,9.2,-,N/A,,Overcast,170,2013-02-16 17:36:00
11:44 AM,37.4,35.6,93,30.37,10.0,Variable,5.8,-,N/A,,Overcast,0,2013-02-16 17:44:00
11:55 AM,37.2,34.2,89,30.37,10.0,South,4.6,-,N/A,,Overcast,180,2013-02-16 17:55:00
12:06 PM,39.2,33.8,81,30.36,10.0,South,4.6,-,N/A,,Scattered Clouds,190,2013-02-16 18:06:00
12:55 PM,43.2,34.5,72,30.32,10.0,SSW,8.1,-,N/A,,Clear,210,2013-02-16 18:55:00
1:55 PM,47.5,34.0,59,30.27,10.0,South,10.4,-,N/A,,Clear,190,2013-02-16 19:55:00
2:55 PM,53.4,32.5,45,30.22,10.0,SSW,15.0,-,N/A,,Clear,200,2013-02-16 20:55:00
3:55 PM,55.8,31.3,39,30.18,10.0,SSW,11.5,-,N/A,,Clear,210,2013-02-16 21:55:00
4:55 PM,57.2,27.9,33,30.14,10.0,SSW,13.8,-,N/A,,Clear,210,2013-02-16 22:55:00
5:55 PM,54.5,32.2,43,30.12,10.0,South,9.2,-,N/A,,Clear,180,2013-02-16 23:55:00
6:55 PM,45.3,33.4,63,30.13,10.0,South,5.8,-,N/A,,Clear,170,2013-02-17 00:55:00
7:55 PM,41.5,32.7,71,30.13,10.0,SE,4.6,-,N/A,,Clear,140,2013-02-17 01:55:00
8:55 PM,39.0,32.0,76,30.12,10.0,SE,3.5,-,N/A,,Clear,130,2013-02-17 02:55:00
9:55 PM,35.6,30.4,81,30.12,10.0,East,5.8,-,N/A,,Clear,90,2013-02-17 03:55:00
10:55 PM,37.2,30.2,76,30.12,10.0,Calm,Calm,-,N/A,,Clear,0,2013-02-17 04:55:00
11:55 PM,34.2,30.0,85,30.09,10.0,ESE,3.5,-,N/A,,Clear,120,2013-02-17 05:55:00